Volver al catálogo

SL-14 DEB

ActivoPO
NORAD 45285·DEBRIS·🇷🇺 Russia

Lanzado Aug 15, 1991 desde Plesetsk Cosmodrome

Loading…

Próximos Pases (próximas 24 horas)

TLE

ActualizadoSource: Space-Track

Época: Sep 14, 2026, 01:58 UTC

1 45285U 91056X   26257.08212937  .00000096  00000-0  27048-3 0  9998
2 45285  82.5660 129.7302 0109264 211.5057 147.9483 13.00696529312261

Sigue SL-14 DEB en tiempo real con AllMySat

Download on the App Store